FW6401 Weather Reports


time (UTC)temp
C
wind
direction
speed
KPH
gust
KPH
rain 1hr
cm
rain 24hr
cm
rain mn
cm
humidity
%
barometer
mb
20260507000020 6 298 4.8 12.9 0.03 1.98 1.98 98 1006.6
20260506234519 7 338 8.0 14.5 0.05 1.98 1.98 98 1006.3
20260506233017 7 331 6.4 9.7 0.03 1.96 1.96 98 1006.1
20260506231516 7 174 0.0 4.8 0.13 1.96 1.96 98 1006.0
20260506230016 7 174 1.6 4.8 0.23 1.93 1.93 98 1006.1
20260506224524 7 260 3.2 6.4 0.28 1.96 1.93 98 1006.1
20260506223015 7 267 6.4 19.3 0.30 1.93 1.91 97 1005.9
20260506221513 7 319 6.4 17.7 0.23 1.83 1.80 96 1006.0
20260506220010 7 315 9.7 24.1 0.15 1.73 1.70 96 1005.6
20260506214505 8 305 9.7 19.3 0.13 1.85 1.65 96 1005.1
20260506213001 9 5 8.0 16.1 0.10 1.80 1.60 96 1004.9
20260506211558 10 317 8.0 14.5 0.08 1.78 1.57 96 1004.7
20260506210119 10 317 4.8 12.9 0.05 1.75 1.55 95 1004.7
20260506204556 11 323 6.4 9.7 0.03 1.73 1.52 95 1004.6
20260506203141 13 311 4.8 8.0 0.00 1.70 1.50 94 1004.5
20260506201555 13 322 1.6 12.9 0.05 1.70 1.50 93 1004.3
20260506200055 14 293 4.8 16.1 0.13 1.70 1.50 89 1004.4
20260506194552 13 219 9.7 24.1 0.46 1.70 1.50 88 1004.7
20260506193051 13 209 8.0 20.9 0.66 1.70 1.50 90 1004.9
20260506191553 13 232 3.2 16.1 0.71 1.65 1.42 95 1005.1
20260506190054 13 360 0.0 6.4 0.66 1.57 1.37 98 1005.3
20260506184555 13 355 1.6 3.2 0.41 1.22 1.02 97 1005.4
20260506183047 13 355 3.2 12.9 0.28 1.02 0.81 97 1005.1
20260506181545 13 156 1.6 3.2 0.25 0.94 0.71 96 1005.4
20260506180046 13 153 4.8 8.0 0.25 0.91 0.71 96 1005.6
20260506174546 13 164 1.6 8.0 0.20 0.81 0.61 96 1005.8
20260506173052 13 171 3.2 8.0 0.15 0.71 0.53 96 1005.8
20260506171543 13 183 3.2 6.4 0.13 0.69 0.48 97 1005.6
20260506170042 13 136 1.6 6.4 0.13 0.66 0.46 98 1005.7
20260506164547 13 131 0.0 3.2 0.10 0.61 0.41 99 1005.8
20260506163055 13 131 0.0 4.8 0.13 0.58 0.38 99 1005.9
20260506161538 12 121 3.2 9.7 0.10 0.56 0.36 99 1006.4
20260506160036 12 346 0.0 1.6 0.10 0.53 0.33 99 1006.9
20260506154538 12 342 0.0 3.2 0.08 0.51 0.30 98 1007.5
20260506153034 12 342 0.0 3.2 0.03 0.46 0.25 98 1007.4
20260506151539 11 342 1.6 6.4 0.03 0.46 0.25 98 1007.5
20260506150033 12 345 1.6 6.4 0.00 0.43 0.23 98 1007.5
20260506144532 11 346 3.2 6.4 0.00 0.43 0.23 98 1007.6
20260506143032 11 337 3.2 6.4 0.03 0.43 0.23 98 1007.5
20260506141531 11 338 3.2 8.0 0.05 0.43 0.23 98 1007.4
20260506140034 11 348 1.6 4.8 0.05 0.43 0.23 97 1007.1
20260506134530 11 348 1.6 8.0 0.05 0.43 0.23 97 1007.2
20260506133030 11 355 3.2 8.0 0.03 0.41 0.20 97 1007.8
20260506131535 12 336 4.8 6.4 0.00 0.38 0.18 97 1007.5
20260506130030 12 303 4.8 9.7 0.00 0.38 0.18 96 1007.8
20260506124529 12 142 0.0 3.2 0.00 0.38 0.18 97 1007.4
20260506123028 11 142 1.6 6.4 0.00 0.38 0.18 97 1007.5
20260506121528 11 141 4.8 8.0 0.00 0.38 0.18 98 1007.6
20260506120028 11 146 3.2 6.4 0.00 0.38 0.18 99 1007.7
20260506114526 11 166 3.2 8.0 0.00 0.38 0.18 99 1008.0
20260506113027 10 169 1.6 3.2 0.00 0.38 0.18 99 1008.2
20260506111530 10 169 0.0 0.0 0.00 0.38 0.18 98 1008.3
20260506110026 10 169 0.0 0.0 0.00 0.38 0.18 98 1008.0
20260506104525 10 169 0.0 0.0 0.00 0.38 0.18 98 1008.1
20260506103025 10 169 0.0 4.8 0.00 0.38 0.18 97 1008.0
20260506101524 10 169 1.6 3.2 0.00 0.38 0.18 97 1008.0
20260506100023 10 169 1.6 6.4 0.00 0.38 0.18 97 1008.2
20260506094522 10 141 3.2 6.4 0.00 0.38 0.18 97 1008.0
20260506093021 10 141 1.6 6.4 0.00 0.38 0.18 97 1008.3
20260506091520 10 141 0.0 6.4 0.00 0.38 0.18 97 1008.7
20260506090018 10 148 1.6 4.8 0.00 0.38 0.18 96 1008.5
20260506084523 10 109 1.6 6.4 0.00 0.38 0.18 96 1008.5
20260506083019 10 107 0.0 0.0 0.00 0.38 0.18 96 1008.5
20260506081515 10 107 0.0 0.0 0.00 0.38 0.18 96 1008.4
20260506073012 11 107 0.0 1.6 0.05 0.38 0.18 95 1009.1
20260506071512 11 107 0.0 4.8 0.08 0.38 0.18 94 1009.1
20260506061507 11 294 1.6 8.0 0.08 0.30 0.10 93 1009.0
20260506050109 14 298 11.3 22.5 0.00 0.20 0.00 82 1008.0
20260506044547 15 170 3.2 9.7 0.00 0.20 0.00 83 1007.5
20260506043042 16 178 4.8 11.3 0.00 0.20 0.00 77 1007.0
20260506041555 16 170 3.2 9.7 0.00 0.20 0.00 71 1006.9
20260506040038 17 194 8.0 19.3 0.00 0.20 0.00 69 1007.0
20260506034548 17 194 6.4 20.9 0.00 0.20 0.20 66 1007.0
20260506033038 17 177 14.5 29.0 0.00 0.20 0.20 66 1007.1
20260506031535 17 217 4.8 12.9 0.00 0.20 0.20 66 1007.1
20260506030037 17 229 1.6 9.7 0.00 0.20 0.20 67 1007.0
20260506024534 17 205 3.2 9.7 0.00 0.20 0.20 68 1006.7
20260506023033 17 201 9.7 24.1 0.00 0.20 0.20 67 1006.8
20260506021533 16 178 3.2 16.1 0.00 0.20 0.20 71 1007.0
20260506020032 17 175 6.4 16.1 0.00 0.20 0.20 67 1006.8
20260506014532 17 199 9.7 19.3 0.00 0.20 0.20 67 1007.3
20260506013046 17 217 11.3 30.6 0.00 0.20 0.20 68 1007.1
20260506011531 17 207 16.1 25.7 0.00 0.20 0.20 66 1007.1
20260506010033 17 130 11.3 24.1 0.00 0.20 0.20 67 1006.9
20260506004529 17 188 11.3 29.0 0.00 0.20 0.20 69 1006.9
20260506003029 17 184 17.7 27.4 0.00 0.20 0.20 70 1006.5
20260506001529 16 217 9.7 24.1 0.00 0.20 0.20 70 1006.2